Location: Unspecified
(0.0000°N, 0.0000°E)
Time: 04:44:28
(UTC+00:00)

Vanguard 3 - Pass Details

Date: 15 April 2021
Orbit: 507 x 3262 km, 33.4° (Epoch: 17 May)

Event Time Altitude Azimuth Distance (km) Brightness Sun altitude
Rises 21:31:51 0° 228° (SW) 6,343 12.0 -51.8°
Reaches altitude 10° 21:36:51 10° 224° (SW) 4,912 11.3 -53.0°
Enters shadow 21:41:03 21° 219° (SW) 3,660 10.5 -54.0°
